User: anonymous   Login
Location: Caltech
(34.1382°N, 118.1253°W)
Time: 17:38:32
(UTC-08:00)
Language:

Iridium 75 - Orbit

View from above orbital plane
View from above orbital plane
View from above satellite
View from above satellite

Ground track
Ground track

The orbit data is extracted from the following two-line orbital elements,

1 25346U 98032E   15065.47418493  .00000473  00000-0  16200-3 0  9995
2 25346 086.3980 212.5503 0002030 096.9791 299.0656 14.34218092880175
Epoch (UTC): 06 March 2015 11:22:49
Eccentricity: 0.0002030
inclination: 86.3980°
perigee height: 776 km
apogee height: 779 km
right ascension of ascending node: 212.5503°
argument of perigee: 96.9791°
revolutions per day: 14.34218092
mean anomaly at epoch: 299.0656°
orbit number at epoch: 88017

The dashed part of the orbit path shows where the satellite is in the earth's shadow,  

DLR